TimeEDT,TemperatureF,Dew PointF,Humidity,Sea Level PressureIn,VisibilityMPH,Wind Direction,Wind SpeedMPH,Gust SpeedMPH,PrecipitationIn,Events,Conditions,WindDirDegrees,DateUTC
12:56 AM,72.0,66.9,84,30.09,8.0,SSE,5.8,-,N/A,,Clear,160,2013-06-23 04:56:00
1:56 AM,71.1,66.9,87,30.09,7.0,SSE,5.8,-,N/A,,Clear,150,2013-06-23 05:56:00
2:56 AM,69.1,66.0,90,30.09,7.0,WSW,4.6,-,N/A,,Clear,240,2013-06-23 06:56:00
3:56 AM,69.1,66.0,90,30.08,6.0,Calm,Calm,-,N/A,,Clear,0,2013-06-23 07:56:00
4:56 AM,66.9,64.9,93,30.10,6.0,Calm,Calm,-,N/A,,Clear,0,2013-06-23 08:56:00
5:56 AM,66.9,64.9,93,30.12,4.0,SW,3.5,-,N/A,,Partly Cloudy,220,2013-06-23 09:56:00
6:56 AM,70.0,66.9,90,30.13,3.0,SSE,4.6,-,N/A,,Partly Cloudy,160,2013-06-23 10:56:00
7:56 AM,73.0,68.0,84,30.13,5.0,SSE,5.8,-,N/A,,Haze,150,2013-06-23 11:56:00
8:56 AM,77.0,66.9,71,30.15,8.0,SSW,4.6,-,N/A,,Partly Cloudy,200,2013-06-23 12:56:00
9:56 AM,79.0,68.0,69,30.15,9.0,SSW,8.1,-,N/A,,Clear,200,2013-06-23 13:56:00
10:56 AM,82.0,68.0,62,30.13,10.0,SSW,10.4,-,N/A,,Partly Cloudy,210,2013-06-23 14:56:00
11:56 AM,84.0,68.0,58,30.11,10.0,South,11.5,-,N/A,,Scattered Clouds,190,2013-06-23 15:56:00
12:56 PM,84.9,66.0,53,30.10,10.0,South,13.8,-,N/A,,Scattered Clouds,190,2013-06-23 16:56:00
1:56 PM,86.0,66.0,51,30.10,10.0,SSW,11.5,-,N/A,,Mostly Cloudy,200,2013-06-23 17:56:00
2:56 PM,84.9,64.9,51,30.09,10.0,South,9.2,17.3,N/A,,Mostly Cloudy,190,2013-06-23 18:56:00
3:56 PM,88.0,66.0,48,30.07,10.0,WSW,11.5,-,N/A,,Mostly Cloudy,250,2013-06-23 19:56:00
4:56 PM,88.0,64.0,45,30.05,10.0,SW,16.1,-,N/A,,Scattered Clouds,230,2013-06-23 20:56:00
5:56 PM,88.0,64.0,45,30.04,10.0,WSW,11.5,-,N/A,,Scattered Clouds,240,2013-06-23 21:56:00
6:11 PM,87.8,64.4,46,30.06,10.0,WSW,23.0,29.9,N/A,Thunderstorm,Thunderstorm,240,2013-06-23 22:11:00
6:35 PM,71.6,64.4,78,30.09,1.5,SSW,25.3,42.6,0.00,Rain-Thunderstorm,Heavy Thunderstorms and Rain,200,2013-06-23 22:35:00
6:48 PM,73.4,66.2,78,30.10,3.0,SSW,13.8,-,0.12,Rain-Thunderstorm,Thunderstorms and Rain,200,2013-06-23 22:48:00
6:56 PM,73.0,68.0,84,30.08,7.0,SSW,12.7,-,0.12,Rain-Thunderstorm,Thunderstorms and Rain,200,2013-06-23 22:56:00
7:47 PM,73.4,68.0,83,30.10,8.0,WSW,6.9,-,0.00,,Mostly Cloudy,250,2013-06-23 23:47:00
7:56 PM,73.0,69.1,87,30.08,7.0,West,4.6,-,0.00,,Mostly Cloudy,280,2013-06-23 23:56:00
8:56 PM,75.0,66.0,73,30.08,10.0,Calm,Calm,-,N/A,,Mostly Cloudy,0,2013-06-24 00:56:00
9:56 PM,73.0,68.0,84,30.10,9.0,Calm,Calm,-,N/A,,Mostly Cloudy,0,2013-06-24 01:56:00
10:56 PM,71.1,66.9,87,30.11,8.0,SSE,4.6,-,N/A,,Mostly Cloudy,150,2013-06-24 02:56:00
11:56 PM,71.1,66.0,84,30.11,9.0,SSW,3.5,-,N/A,,Scattered Clouds,210,2013-06-24 03:56:00